Location: Casteau
(50.5142°N, 4.0161°E)
Time: 00:30:47
(UTC+00:00)

S-56A Canister/Altair - Pass Details

Date: 06 August 2021
Orbit: 632 x 2500 km, 38.9° (Epoch: 16 September)

Event Time Altitude Azimuth Distance (km) Brightness Sun altitude
Rises 20:40:15 0° 277° (W) 6,180 13.1 -11.2°
Reaches altitude 10° 20:49:21 10° 248° (WSW) 5,073 12.0 -12.2°
Maximum altitude 20:52:17 11° 236° (SW) 4,914 11.7 -12.6°
Drops below altitude 10° 20:55:10 10° 224° (SW) 4,883 11.6 -12.9°
Sets 21:03:15 0° 193° (SSW) 5,462 11.5 -13.7°
